Flag for U.S.A. Weather past 2 weeks in Fremont, California, U.S.A.

Now
60 °F

Sunny.


Feels Like: 60 °F
Forecast: 52 / 62 °F
Wind: 13 mph from Northwest

Location: Moffett Field

Current Time: Apr 24, 2015 at 6:21:54 PM

Latest Report: Apr 24, 2015 at 5:56 PM


Visibility: 10 mi

Pressure: 30.04 "Hg

Humidity: 41%

Dew point: 36 °F

Location of FremontLocation

Historic Weather in Fremont — Graph

°F

Fremont temperature yesterday

Maximum temperature yesterday: 69 °F (at 1:56 PM)
Minimum temperature yesterday: 54 °F (at 5:56 AM)
Average temperature yesterday: 59 °F

Past Weeks' High & Low Weather Summary

 TemperatureHumidityPressure
High80 °F (Apr 16, 3:56 PM)90% (Apr 19, 3:56 AM)30.36 "Hg (Apr 19, 3:56 AM)
Low47 °F (Apr 10, 3:56 AM)17% (Apr 16, 3:56 PM)29.85 "Hg (Apr 20, 6:56 PM)
Average59 °F60%30.01 "Hg
* Reported Apr 9 3:56 PM — Apr 24 3:56 PM, Fremont, Weather by CustomWeather, © 2015

Note: Actual official high and low records may vary slightly from our data, if they occured in-between our weather recording intervals... More about our weather records

Advertising

Fremont weather history for previous 24 hours

 ConditionsComfort  
Time TempWeatherWind HumidityBarometerVisibility
3:56 PM
Fri, Apr 24
64 °FSunny.9 mph35%30.02 "Hg10 mi
2:56 PM67 °FSunny.10 mph36%30.03 "Hg10 mi
1:56 PM64 °FSunny.12 mph43%30.04 "Hg10 mi
12:56 PM64 °FSunny.9 mph45%30.05 "Hg10 mi
11:56 AM63 °FSunny.7 mph41%30.04 "Hg10 mi
10:56 AM63 °FSunny.12 mph34%30.03 "Hg10 mi
9:56 AM61 °FSunny.14 mph36%30.02 "Hg10 mi
8:56 AM57 °FSunny.9 mph51%30.01 "Hg10 mi
7:56 AM56 °FSunny.10 mph62%30.00 "Hg10 mi
6:56 AM55 °FClear.7 mph74%29.98 "Hg10 mi
5:56 AM53 °FClear.3 mph77%29.96 "Hg10 mi
4:56 AM51 °FClear.6 mph80%29.95 "Hg10 mi
3:56 AM53 °FClear.3 mph77%29.95 "Hg10 mi
2:56 AM53 °FClear.3 mph77%29.94 "Hg10 mi
1:56 AM52 °FClear.5 mph77%29.94 "Hg10 mi
12:56 AM54 °FClear.3 mph74%29.94 "Hg10 mi
11:56 PM
Thu, Apr 23
54 °FClear.No wind74%29.93 "Hg10 mi
10:56 PM56 °FClear.7 mph70%29.93 "Hg10 mi
9:56 PM59 °FClear.7 mph56%29.92 "Hg10 mi
8:56 PM57 °FClear.5 mph60%29.90 "Hg10 mi
7:56 PM58 °FSunny.6 mph56%29.88 "Hg10 mi
6:56 PM60 °FSunny.10 mph60%29.87 "Hg10 mi
Weather by CustomWeather, © 2015

See weather overviewHow to use our weather pages